Weather History for Hebron, NE

Change the Weather History Date:

Monday, February 18, 2013

  Actual Average Record
Temperature  
Mean Temperature 34 °F -  
Max Temperature 47 °F 43 °F 74 °F (1970)
Min Temperature 22 °F 18 °F -14 °F (1978)
Degree Days  
Heating Degree Days 30    
Moisture  
Dew Point 23 °F    
Average Humidity 61    
Maximum Humidity 84    
Minimum Humidity 39    
Precipitation  
Precipitation 0.00 in - - ()
Sea Level Pressure  
Sea Level Pressure 29.82 in    
Wind  
Wind Speed 12 mph (NNW)    
Max Wind Speed 30 mph    
Max Gust Speed 37 mph    
Visibility 10 miles    
Events Rain    
Averages and records for this station are not official NWS values.
T = Trace of Precipitation, MM = Missing Value Source: NWS Daily Summary

Daily Weather History Graph

Daily Weather History Graph

Search for Another Location

Airport:

Trip Planner

Search our weather history database for the weather conditions in past years. The results will help you decide how hot, cold, wet, or windy it might be!

Date:

Astronomy

Feb. 18, 2013 Rise Set
Actual Time 7:19 AM CST 6:09 PM CST
Civil Twilight 6:51 AM CST 6:37 PM CST
Nautical Twilight 6:19 AM CST 7:09 PM CST
Astronomical Twilight 5:48 AM CST 7:40 PM CST
Moon 11:56 AM CST (2/18) 2:00 AM CST (2/18)
Length of Visible Light 11h 46m
Length of Day
10h 50m
First Quarter, 58% of the Moon is Illuminated
Feb 18
First Quarter
Feb 25
Full
Mar 4
Last Quarter
Mar 11
New
Mar 19
First Quarter

Hourly Weather History & Observations

Time (CST) Temp. Windchill Dew Point Humidity Pressure Visibility Wind Dir Wind Speed Gust Speed Precip Events Conditions
12:15 AM 47.1 °F - 27.9 °F 47% 29.50 in 10.0 mi South 11.5 mph - N/A   Clear
12:55 AM 43.7 °F - 27.5 °F 53% 29.49 in 10.0 mi Calm Calm - N/A   Clear
1:15 AM 40.8 °F 38.8 °F 26.8 °F 57% 29.50 in 10.0 mi ESE 3.5 mph - N/A   Clear
1:35 AM 42.1 °F 38.4 °F 28.2 °F 58% 29.53 in 10.0 mi North 5.8 mph 27.6 mph N/A   Clear
1:55 AM 42.6 °F - 27.9 °F 56% 29.54 in 10.0 mi Calm Calm - N/A   Clear
2:15 AM 39.7 °F 37.6 °F 27.1 °F 61% 29.53 in 10.0 mi East 3.5 mph - N/A   Clear
2:35 AM 38.3 °F 33.9 °F 27.1 °F 64% 29.51 in 10.0 mi ESE 5.8 mph - N/A   Clear
2:55 AM 37.4 °F 33.8 °F 27.7 °F 68% 29.54 in 10.0 mi North 4.6 mph - N/A   Clear
3:15 AM 39.4 °F 31.8 °F 28.4 °F 65% 29.54 in 10.0 mi North 12.7 mph 20.7 mph N/A   Clear
3:35 AM 41.4 °F 33.0 °F 29.8 °F 64% 29.53 in 10.0 mi NNE 17.3 mph 28.8 mph N/A   Clear
3:55 AM 41.9 °F 33.4 °F 30.2 °F 63% 29.54 in 10.0 mi North 18.4 mph 25.3 mph N/A   Clear
4:15 AM 41.4 °F 33.6 °F 30.6 °F 65% 29.54 in 10.0 mi NNE 15.0 mph 25.3 mph N/A   Clear
4:35 AM 41.0 °F 32.2 °F 30.9 °F 67% 29.55 in 10.0 mi NNE 18.4 mph 23.0 mph N/A   Clear
4:55 AM 40.5 °F 32.1 °F 31.1 °F 69% 29.57 in 10.0 mi North 16.1 mph 23.0 mph N/A   Clear
5:15 AM 40.5 °F 31.5 °F 31.3 °F 70% 29.57 in 10.0 mi North 18.4 mph 24.2 mph N/A   Clear
5:35 AM 40.1 °F 32.0 °F 31.3 °F 71% 29.59 in 10.0 mi NNE 15.0 mph 23.0 mph N/A   Clear
6:15 AM 40.1 °F 32.0 °F 31.1 °F 70% 29.63 in 10.0 mi North 15.0 mph 24.2 mph N/A   Clear
6:35 AM 39.2 °F 31.6 °F 31.1 °F 73% 29.64 in 10.0 mi North 12.7 mph 20.7 mph N/A   Clear
6:55 AM 38.7 °F 30.5 °F 31.1 °F 74% 29.65 in 10.0 mi North 13.8 mph 19.6 mph N/A   Clear
7:15 AM 38.5 °F 29.9 °F 30.6 °F 73% 29.65 in 10.0 mi North 15.0 mph 20.7 mph N/A   Scattered Clouds
7:35 AM 38.5 °F 30.7 °F 30.4 °F 73% 29.66 in 10.0 mi North 12.7 mph - N/A   Scattered Clouds
7:55 AM 38.3 °F 31.9 °F 30.2 °F 73% 29.69 in 10.0 mi North 9.2 mph - N/A   Mostly Cloudy
8:15 AM 38.7 °F 30.9 °F 30.0 °F 71% 29.71 in 10.0 mi North 12.7 mph 20.7 mph N/A   Overcast
8:35 AM 38.7 °F 30.1 °F 29.3 °F 69% 29.72 in 10.0 mi North 15.0 mph 20.7 mph N/A   Overcast
8:55 AM 39.2 °F 31.6 °F 28.9 °F 67% 29.74 in 10.0 mi North 12.7 mph 21.9 mph N/A   Overcast
9:15 AM 39.4 °F 31.1 °F 28.9 °F 66% 29.75 in 10.0 mi North 15.0 mph 24.2 mph N/A   Overcast
9:35 AM 38.5 °F 28.9 °F 30.6 °F 73% 29.77 in 7.0 mi North 18.4 mph 27.6 mph N/A   Unknown
9:55 AM 36.5 °F 30.3 °F 32.2 °F 84% 29.78 in 10.0 mi North 8.1 mph - N/A Rain Light Rain
10:35 AM 39.7 °F 29.2 °F 28.2 °F 63% 29.79 in 10.0 mi NNW 24.2 mph 32.2 mph N/A   Mostly Cloudy
10:55 AM 39.4 °F 29.0 °F 27.3 °F 62% 29.80 in 10.0 mi NNW 23.0 mph 33.4 mph N/A   Overcast
11:15 AM 39.2 °F 29.0 °F 26.1 °F 59% 29.82 in 10.0 mi NNW 21.9 mph 33.4 mph N/A   Overcast
11:35 AM 39.0 °F 29.0 °F 25.3 °F 58% 29.83 in 10.0 mi North 20.7 mph 31.1 mph N/A   Overcast
11:55 AM 38.3 °F 27.6 °F 25.2 °F 59% 29.85 in 10.0 mi North 23.0 mph 29.9 mph N/A   Overcast
12:15 PM 39.0 °F 28.3 °F 24.4 °F 56% 29.85 in 10.0 mi NNW 24.2 mph 32.2 mph N/A   Overcast
12:35 PM 39.4 °F 29.0 °F 24.1 °F 54% 29.85 in 10.0 mi North 23.0 mph 29.9 mph N/A   Overcast
12:55 PM 38.8 °F 28.3 °F 23.4 °F 54% 29.86 in 10.0 mi North 23.0 mph 33.4 mph N/A   Overcast
1:15 PM 38.7 °F 27.5 °F 22.6 °F 53% 29.87 in 10.0 mi North 25.3 mph 36.8 mph N/A   Overcast
1:35 PM 38.3 °F 27.1 °F 21.7 °F 51% 29.87 in 10.0 mi NNW 25.3 mph 32.2 mph N/A   Overcast
1:55 PM 37.8 °F 26.1 °F 21.7 °F 53% 29.88 in 10.0 mi NNW 26.5 mph 31.1 mph N/A   Overcast
2:15 PM 37.9 °F 26.3 °F 21.0 °F 51% 29.88 in 10.0 mi NNW 26.5 mph 32.2 mph N/A   Overcast
2:35 PM 39.0 °F 28.8 °F 19.6 °F 46% 29.88 in 10.0 mi NW 21.9 mph 33.4 mph N/A   Scattered Clouds
2:55 PM 39.6 °F 28.7 °F 19.2 °F 44% 29.89 in 10.0 mi NNW 25.3 mph 33.4 mph N/A   Clear
3:15 PM 40.1 °F 28.6 °F 18.1 °F 41% 29.90 in 10.0 mi NNW 29.9 mph 36.8 mph N/A   Clear
3:35 PM 40.3 °F 31.3 °F 17.2 °F 39% 29.91 in 10.0 mi NNW 18.4 mph 33.4 mph N/A   Clear
3:55 PM 39.6 °F 29.2 °F 16.9 °F 40% 29.92 in 10.0 mi NNW 23.0 mph 35.7 mph N/A   Clear
4:15 PM 39.4 °F 28.7 °F 16.5 °F 40% 29.93 in 10.0 mi NNW 24.2 mph 34.5 mph N/A   Clear
4:35 PM 38.7 °F 28.0 °F 16.5 °F 41% 29.94 in 10.0 mi NNW 23.0 mph 28.8 mph N/A   Clear
4:55 PM 37.9 °F 28.9 °F 16.7 °F 42% 29.95 in 10.0 mi North 16.1 mph 25.3 mph N/A   Clear
5:15 PM 37.4 °F 27.2 °F 16.3 °F 42% 29.96 in 10.0 mi North 19.6 mph 26.5 mph N/A   Clear
5:35 PM 36.7 °F 26.3 °F 16.5 °F 44% 29.97 in 10.0 mi North 19.6 mph 26.5 mph N/A   Clear
5:55 PM 35.6 °F 27.5 °F 16.5 °F 46% 29.98 in 10.0 mi North 11.5 mph 20.7 mph N/A   Clear
6:15 PM 34.3 °F 25.9 °F 16.2 °F 47% 29.99 in 10.0 mi NNW 11.5 mph - N/A   Clear
6:35 PM 33.1 °F 25.5 °F 16.5 °F 51% 30.00 in 10.0 mi NNW 9.2 mph - N/A   Clear
6:55 PM 32.7 °F 25.7 °F 16.5 °F 51% 30.01 in 10.0 mi NNW 8.1 mph - N/A   Clear
7:15 PM 31.6 °F 26.0 °F 16.9 °F 54% 30.03 in 10.0 mi NNW 5.8 mph - N/A   Clear
7:35 PM 30.2 °F 26.7 °F 17.1 °F 58% 30.03 in 10.0 mi NNW 3.5 mph - N/A   Clear
7:55 PM 29.7 °F 24.7 °F 16.7 °F 59% 30.03 in 10.0 mi NNW 4.6 mph - N/A   Clear
8:15 PM 29.1 °F 25.4 °F 17.1 °F 61% 30.05 in 10.0 mi NW 3.5 mph - N/A   Clear
8:35 PM 28.2 °F 24.4 °F 16.7 °F 62% 30.05 in 10.0 mi NW 3.5 mph - N/A   Clear
8:55 PM 27.0 °F 23.0 °F 17.2 °F 67% 30.06 in 10.0 mi WNW 3.5 mph - N/A   Clear
9:15 PM 26.6 °F 22.6 °F 16.7 °F 66% 30.06 in 10.0 mi WNW 3.5 mph - N/A   Clear
9:35 PM 24.8 °F 20.5 °F 16.7 °F 71% 30.06 in 10.0 mi WSW 3.5 mph - N/A   Clear
9:55 PM 23.7 °F - 16.5 °F 74% 30.07 in 10.0 mi Calm Calm - N/A   Clear
10:15 PM 22.6 °F - 16.7 °F 78% 30.08 in 10.0 mi Calm Calm - N/A   Clear
10:35 PM 22.5 °F 17.8 °F 16.5 °F 78% 30.08 in 10.0 mi West 3.5 mph - N/A   Clear
10:55 PM 23.0 °F 17.0 °F 16.5 °F 76% 30.09 in 10.0 mi West 4.6 mph - N/A   Clear
11:15 PM 22.6 °F 18.0 °F 16.3 °F 77% 30.09 in 10.0 mi West 3.5 mph - N/A   Clear
11:35 PM 23.2 °F 18.7 °F 16.3 °F 75% 30.10 in 10.0 mi WNW 3.5 mph - N/A   Clear
11:55 PM 24.8 °F - 16.5 °F 71% 30.11 in 10.0 mi Calm Calm - N/A   Clear